Greenwood, SC

1:28 AM EDT on April 27, 2018 (GMT -0400)
Greenwood County

Weather History for KGRD - November, 2012

Change the Weather History Date:

Friday, November 16, 2012

  Actual Average (KAND) Record (KAND)
Temperature  
Mean Temperature 44 °F -  
Max Temperature 59 °F 62 °F 85 °F (1958)
Min Temperature 30 °F 41 °F 27 °F (1963)
Degree Days  
Heating Degree Days 20    
Moisture  
Dew Point 34 °F    
Average Humidity 75    
Maximum Humidity 96    
Minimum Humidity 36    
Precipitation  
Precipitation 0.00 in - - ()
Sea Level Pressure  
Sea Level Pressure 30.32 in    
Wind  
Wind Speed 3 mph (NNE)    
Max Wind Speed 6 mph    
Max Gust Speed -    
Visibility 9 miles    
Events      
Averages and records for this station are not official NWS values.
T = Trace of Precipitation, MM = Missing Value Source: NWS Daily Summary

Daily Weather History Graph

Daily Weather History Graph

Search for Another Location

Airport or City:

Astronomy

Nov. 16, 2012 Rise Set
Actual Time 7:03 AM EST 5:23 PM EST
Civil Twilight 6:36 AM EST 5:50 PM EST
Nautical Twilight 6:05 AM EST 6:20 PM EST
Astronomical Twilight 5:36 AM EST 6:50 PM EST
Moon 9:54 AM EST (11/16) 8:23 PM EST (11/16)
Length of Visible Light 11h 14m
Length of Day
10h 20m
Waxing Crescent, 11% of the Moon is Illuminated
Nov 16
Waxing Crescent
Nov 20
First Quarter
Nov 28
Full
Dec 6
Last Quarter
Dec 13
New

Hourly Weather History & Observations

Time (EST) Temp. Windchill Dew Point Humidity Pressure Visibility Wind Dir Wind Speed Gust Speed Precip Events Conditions
12:56 AM 36.0 °F 33.3 °F 33.1 °F 89% 30.30 in 10.0 mi NNE 3.5 mph - N/A   Clear
1:56 AM 34.0 °F - 33.1 °F 96% 30.30 in 7.0 mi Calm Calm - N/A   Clear
2:56 AM 34.0 °F 31.0 °F 32.0 °F 92% 30.30 in 7.0 mi NNW 3.5 mph - N/A   Clear
3:56 AM 34.0 °F 31.0 °F 32.0 °F 92% 30.29 in 9.0 mi NNW 3.5 mph - N/A   Clear
4:56 AM 30.9 °F 27.5 °F 30.0 °F 96% 30.29 in 5.0 mi North 3.5 mph - N/A   Clear
5:56 AM 32.0 °F 28.7 °F 30.0 °F 92% 30.30 in 8.0 mi North 3.5 mph - N/A   Clear
6:56 AM 30.9 °F 26.2 °F 28.9 °F 92% 30.31 in 7.0 mi North 4.6 mph - N/A   Clear
7:56 AM 36.0 °F 33.3 °F 32.0 °F 86% 30.33 in 9.0 mi North 3.5 mph - N/A   Clear
8:56 AM 41.0 °F 37.1 °F 34.0 °F 76% 30.35 in 10.0 mi NNE 5.8 mph - N/A   Clear
9:56 AM 44.1 °F 42.5 °F 36.0 °F 73% 30.35 in 10.0 mi Variable 3.5 mph - N/A   Clear
10:56 AM 46.0 °F 43.1 °F 39.0 °F 76% 30.35 in 10.0 mi SE 5.8 mph - N/A   Clear
11:56 AM 52.0 °F - 37.9 °F 59% 30.33 in 10.0 mi East 3.5 mph - N/A   Clear
12:56 PM 55.0 °F - 36.0 °F 49% 30.31 in 10.0 mi Variable 5.8 mph - N/A   Clear
1:56 PM 57.9 °F - 34.0 °F 41% 30.29 in 10.0 mi Calm Calm - N/A   Clear
2:56 PM 59.0 °F - 33.1 °F 38% 30.27 in 10.0 mi Variable 5.8 mph - N/A   Clear
3:56 PM 59.0 °F - 32.0 °F 36% 30.27 in 10.0 mi NE 3.5 mph - N/A   Clear
4:56 PM 55.0 °F - 35.1 °F 47% 30.28 in 10.0 mi NE 3.5 mph - N/A   Clear
5:56 PM 46.9 °F - 37.0 °F 68% 30.30 in 10.0 mi Calm Calm - N/A   Clear
6:56 PM 43.0 °F - 36.0 °F 76% 30.32 in 10.0 mi Calm Calm - N/A   Clear
7:56 PM 42.1 °F - 35.1 °F 76% 30.33 in 10.0 mi Calm Calm - N/A   Clear
8:56 PM 39.0 °F - 35.1 °F 86% 30.34 in 10.0 mi Calm Calm - N/A   Clear
9:56 PM 37.0 °F - 35.1 °F 93% 30.36 in 10.0 mi Calm Calm - N/A   Clear
10:56 PM 36.0 °F 32.1 °F 34.0 °F 93% 30.37 in 10.0 mi NNE 4.6 mph - N/A   Clear
11:56 PM 36.0 °F 32.1 °F 33.1 °F 89% 30.37 in 10.0 mi North 4.6 mph - N/A   Clear